When you browse on this site, cookies collect data to enhance your experience and personalize the content and advertising you see.
Visit our Privacy Policy to learn more. By continuing to use the site, you agree to this use of cookies and data.
  • In Schweiz
  • Länderverzeichnis
  • Für 7 Tage
  • Wassertemperatur
  • Wetterkarte
  • Widgets
  • user-avatar
    Anmelden

    Stündliche Wetter Kabimas

    Heute, 23 Oktober, Mittwoch

    Zeit Temperatur Niederschläge Wind Luftdruck Luftfeuchtigkeit
    00:00 +26°C° 0 mm 3 m/S 757 mmHg 89%
    01:00 +25°C° 0 mm 2 m/S 757 mmHg 91%
    02:00 +25°C° 0 mm 2 m/S 757 mmHg 91%
    03:00 +26°C° 0 mm 2 m/S 757 mmHg 92%
    04:00 +26°C° 0 mm 2 m/S 756 mmHg 93%
    05:00 +26°C° 0 mm 2 m/S 757 mmHg 91%
    06:00 +26°C° 0 mm 2 m/S 757 mmHg 90%
    07:00 +27°C° 0 mm 2 m/S 757 mmHg 88%
    08:00 +28°C° 0 mm 2 m/S 757 mmHg 82%
    09:00 +30°C° 0 mm 2 m/S 758 mmHg 77%
    10:00 +32°C° 0 mm 2 m/S 758 mmHg 71%
    11:00 +31°C° 0.3 mm 2 m/S 757 mmHg 73%
    12:00 +31°C° 0.3 mm 2 m/S 756 mmHg 75%
    13:00 +31°C° 0.3 mm 1 m/S 755 mmHg 77%
    14:00 +31°C° 0.2 mm 1 m/S 755 mmHg 75%
    15:00 +31°C° 0.2 mm 1 m/S 755 mmHg 73%
    16:00 +32°C° 0.2 mm 1 m/S 755 mmHg 71%
    17:00 +30°C° 0.2 mm 2 m/S 755 mmHg 75%
    18:00 +29°C° 0.2 mm 2 m/S 755 mmHg 79%
    19:00 +28°C° 0.2 mm 3 m/S 756 mmHg 83%
    20:00 +27°C° 0.6 mm 4 m/S 756 mmHg 86%
    21:00 +27°C° 0.6 mm 4 m/S 757 mmHg 89%
    22:00 +26°C° 0.6 mm 4 m/S 757 mmHg 92%
    23:00 +26°C° 2.4 mm 3 m/S 757 mmHg 93%

    Morgen, 24 Oktober, Donnerstag

    Zeit Temperatur Niederschläge Wind Luftdruck Luftfeuchtigkeit
    00:00 +26°C° 2.4 mm 2 m/S 756 mmHg 93%
    01:00 +26°C° 2.4 mm 2 m/S 756 mmHg 93%
    02:00 +26°C° 0.5 mm 2 m/S 756 mmHg 93%
    03:00 +26°C° 0.5 mm 2 m/S 756 mmHg 94%
    04:00 +26°C° 0.5 mm 2 m/S 756 mmHg 94%
    05:00 +26°C° 0.5 mm 2 m/S 756 mmHg 93%
    06:00 +27°C° 0.5 mm 2 m/S 757 mmHg 92%
    07:00 +27°C° 0.5 mm 3 m/S 757 mmHg 91%
    08:00 +28°C° 0.4 mm 3 m/S 757 mmHg 87%
    09:00 +29°C° 0.4 mm 3 m/S 757 mmHg 83%
    10:00 +31°C° 0.4 mm 3 m/S 758 mmHg 79%
    11:00 +31°C° 0.2 mm 2 m/S 757 mmHg 76%
    12:00 +32°C° 0.2 mm 2 m/S 756 mmHg 73%
    13:00 +32°C° 0.2 mm 2 m/S 755 mmHg 70%
    14:00 +32°C° 0.2 mm 1 m/S 754 mmHg 73%
    15:00 +32°C° 0.2 mm 1 m/S 754 mmHg 75%
    16:00 +31°C° 0.2 mm 1 m/S 754 mmHg 78%
    17:00 +30°C° 0.2 mm 1 m/S 755 mmHg 82%
    18:00 +29°C° 0.2 mm 2 m/S 755 mmHg 85%
    19:00 +28°C° 0.2 mm 2 m/S 755 mmHg 89%
    20:00 +27°C° 0.3 mm 3 m/S 756 mmHg 89%
    21:00 +27°C° 0.3 mm 4 m/S 756 mmHg 89%
    22:00 +27°C° 0.3 mm 4 m/S 757 mmHg 89%
    23:00 +27°C° 0.7 mm 3 m/S 756 mmHg 89%

    übermorgen, 25 Oktober, Freitag

    Zeit Temperatur Niederschläge Wind Luftdruck Luftfeuchtigkeit
    00:00 +27°C° 0.7 mm 3 m/S 756 mmHg 90%
    01:00 +27°C° 0.7 mm 2 m/S 756 mmHg 91%
    02:00 +27°C° 0.3 mm 2 m/S 756 mmHg 92%
    03:00 +27°C° 0.3 mm 2 m/S 756 mmHg 93%
    04:00 +26°C° 0.3 mm 2 m/S 756 mmHg 94%
    05:00 +27°C° 0.4 mm 2 m/S 756 mmHg 93%
    06:00 +27°C° 0.4 mm 2 m/S 757 mmHg 92%
    07:00 +27°C° 0.4 mm 2 m/S 757 mmHg 91%
    08:00 +28°C° 0 mm 2 m/S 757 mmHg 88%
    09:00 +29°C° 0 mm 2 m/S 757 mmHg 84%
    10:00 +30°C° 0 mm 2 m/S 758 mmHg 81%
    11:00 +31°C° 0 mm 2 m/S 757 mmHg 76%
    12:00 +32°C° 0 mm 2 m/S 756 mmHg 71%
    13:00 +33°C° 0 mm 1 m/S 755 mmHg 66%
    14:00 +32°C° 0 mm 1 m/S 755 mmHg 68%
    15:00 +32°C° 0 mm 1 m/S 755 mmHg 69%
    16:00 +30°C° 0 mm 0 m/S 754 mmHg 70%
    17:00 +31°C° 0 mm 1 m/S 755 mmHg 74%
    18:00 +30°C° 0 mm 2 m/S 756 mmHg 78%
    19:00 +28°C° 0 mm 3 m/S 756 mmHg 82%
    20:00 +28°C° 0.5 mm 3 m/S 756 mmHg 83%
    21:00 +28°C° 0.5 mm 3 m/S 757 mmHg 85%
    22:00 +27°C° 0.5 mm 3 m/S 757 mmHg 86%
    23:00 +27°C° 0.2 mm 2 m/S 757 mmHg 87%

    26 Oktober, Samstag

    Zeit Temperatur Niederschläge Wind Luftdruck Luftfeuchtigkeit
    00:00 +27°C° 0.2 mm 2 m/S 757 mmHg 88%
    01:00 +27°C° 0.2 mm 2 m/S 756 mmHg 89%
    02:00 +27°C° 0.5 mm 2 m/S 756 mmHg 90%
    03:00 +26°C° 0.5 mm 2 m/S 756 mmHg 92%
    04:00 +26°C° 0.5 mm 1 m/S 756 mmHg 93%
    05:00 +26°C° 0.5 mm 2 m/S 757 mmHg 93%
    06:00 +27°C° 0.5 mm 2 m/S 757 mmHg 92%
    07:00 +27°C° 0.5 mm 2 m/S 758 mmHg 92%
    08:00 +28°C° 0.1 mm 2 m/S 758 mmHg 86%
    09:00 +30°C° 0.1 mm 2 m/S 758 mmHg 80%
    10:00 +31°C° 0.1 mm 2 m/S 758 mmHg 73%
    11:00 +32°C° 0 mm 1 m/S 757 mmHg 70%
    12:00 +33°C° 0 mm 1 m/S 756 mmHg 67%
    13:00 +34°C° 0 mm 1 m/S 755 mmHg 64%
    14:00 +33°C° 0.5 mm 1 m/S 755 mmHg 69%
    15:00 +32°C° 0.5 mm 1 m/S 755 mmHg 74%
    16:00 +31°C° 0.5 mm 1 m/S 755 mmHg 80%
    17:00 +30°C° 0.2 mm 2 m/S 755 mmHg 82%
    18:00 +29°C° 0.2 mm 3 m/S 756 mmHg 85%
    19:00 +28°C° 0.2 mm 5 m/S 756 mmHg 87%
    20:00 +28°C° 0.4 mm 4 m/S 756 mmHg 89%
    21:00 +27°C° 0.4 mm 4 m/S 757 mmHg 90%
    22:00 +27°C° 0.4 mm 4 m/S 757 mmHg 91%
    23:00 +27°C° 0.9 mm 3 m/S 757 mmHg 91%

    27 Oktober, Sonntag

    Zeit Temperatur Niederschläge Wind Luftdruck Luftfeuchtigkeit
    00:00 +27°C° 0.9 mm 3 m/S 757 mmHg 91%
    01:00 +27°C° 0.9 mm 2 m/S 756 mmHg 91%
    02:00 +26°C° 0.1 mm 2 m/S 756 mmHg 92%
    03:00 +26°C° 0.1 mm 2 m/S 756 mmHg 92%
    04:00 +26°C° 0.1 mm 2 m/S 756 mmHg 92%
    05:00 +27°C° 0.1 mm 2 m/S 756 mmHg 91%
    06:00 +27°C° 0.1 mm 2 m/S 757 mmHg 89%
    07:00 +28°C° 0.1 mm 2 m/S 757 mmHg 87%
    08:00 +29°C° 1.2 mm 3 m/S 757 mmHg 84%
    09:00 +30°C° 1.2 mm 3 m/S 757 mmHg 80%
    10:00 +31°C° 1.2 mm 3 m/S 757 mmHg 77%
    11:00 +31°C° 1.4 mm 3 m/S 756 mmHg 77%
    12:00 +32°C° 1.4 mm 2 m/S 755 mmHg 77%
    13:00 +32°C° 1.4 mm 2 m/S 755 mmHg 77%
    14:00 +32°C° 0.8 mm 2 m/S 754 mmHg 79%
    15:00 +31°C° 0.8 mm 2 m/S 754 mmHg 80%
    16:00 +31°C° 0.8 mm 2 m/S 754 mmHg 82%
    17:00 +30°C° 0 mm 3 m/S 754 mmHg 83%
    18:00 +29°C° 0 mm 4 m/S 755 mmHg 84%
    19:00 +28°C° 0 mm 5 m/S 756 mmHg 86%
    20:00 +28°C° 0.4 mm 4 m/S 756 mmHg 87%
    21:00 +28°C° 0.4 mm 4 m/S 756 mmHg 88%
    22:00 +27°C° 0.4 mm 4 m/S 756 mmHg 90%
    23:00 +27°C° 0.4 mm 3 m/S 756 mmHg 90%

    28 Oktober, Montag

    Zeit Temperatur Niederschläge Wind Luftdruck Luftfeuchtigkeit
    00:00 +27°C° 0.4 mm 3 m/S 756 mmHg 90%
    01:00 +27°C° 0.4 mm 2 m/S 756 mmHg 90%
    02:00 +27°C° 0.6 mm 3 m/S 756 mmHg 90%
    03:00 +26°C° 0.6 mm 3 m/S 755 mmHg 90%
    04:00 +26°C° 0.6 mm 3 m/S 755 mmHg 90%
    05:00 +27°C° 0.6 mm 3 m/S 756 mmHg 89%
    06:00 +27°C° 0.6 mm 3 m/S 756 mmHg 87%
    07:00 +27°C° 0.6 mm 4 m/S 757 mmHg 86%
    08:00 +29°C° 0.7 mm 4 m/S 757 mmHg 82%
    09:00 +30°C° 0.7 mm 4 m/S 757 mmHg 78%
    10:00 +33°C° 0.7 mm 4 m/S 757 mmHg 74%
    11:00 +33°C° 0.3 mm 3 m/S 756 mmHg 72%
    12:00 +34°C° 0.3 mm 2 m/S 755 mmHg 71%
    13:00 +34°C° 0.3 mm 2 m/S 755 mmHg 69%
    14:00 +34°C° 0.3 mm 2 m/S 754 mmHg 72%
    15:00 +32°C° 0.3 mm 2 m/S 754 mmHg 75%
    16:00 +32°C° 0.3 mm 2 m/S 753 mmHg 78%
    17:00 +31°C° 0 mm 2 m/S 754 mmHg 81%
    18:00 +29°C° 0 mm 3 m/S 755 mmHg 83%
    19:00 +28°C° 0 mm 4 m/S 755 mmHg 86%
    20:00 +28°C° 0.1 mm 4 m/S 756 mmHg 87%
    21:00 +28°C° 0.1 mm 3 m/S 756 mmHg 88%
    22:00 +27°C° 0.1 mm 3 m/S 756 mmHg 89%
    23:00 +27°C° 0.1 mm 3 m/S 756 mmHg 90%

    29 Oktober, Dienstag

    Zeit Temperatur Niederschläge Wind Luftdruck Luftfeuchtigkeit
    00:00 +27°C° 0.1 mm 3 m/S 756 mmHg 90%
    01:00 +27°C° 0.1 mm 2 m/S 755 mmHg 90%
    02:00 +26°C° 0.1 mm 2 m/S 755 mmHg 90%
    03:00 +26°C° 0.1 mm 2 m/S 755 mmHg 89%
    04:00 +26°C° 0.1 mm 2 m/S 755 mmHg 89%
    05:00 +26°C° 0.3 mm 2 m/S 756 mmHg 88%
    06:00 +27°C° 0.3 mm 2 m/S 756 mmHg 86%
    07:00 +28°C° 0.3 mm 2 m/S 757 mmHg 84%
    08:00 +29°C° 0.3 mm 2 m/S 757 mmHg 80%
    09:00 +30°C° 0.3 mm 3 m/S 757 mmHg 75%
    10:00 +33°C° 0.3 mm 4 m/S 757 mmHg 71%
    11:00 +33°C° 0.9 mm 3 m/S 756 mmHg 72%
    12:00 +33°C° 0.9 mm 3 m/S 755 mmHg 74%
    13:00 +33°C° 0.9 mm 3 m/S 755 mmHg 76%
    14:00 +31°C° 0.5 mm 2 m/S 754 mmHg 78%
    15:00 +31°C° 0.5 mm 2 m/S 754 mmHg 80%
    16:00 +31°C° 0.5 mm 1 m/S 754 mmHg 81%
    17:00 +30°C° 0 mm 1 m/S 754 mmHg 84%
    18:00 +29°C° 0 mm 2 m/S 755 mmHg 86%
    19:00 +28°C° 0 mm 2 m/S 756 mmHg 88%
    Mehr zeigen